Theta_e
312 310 312 313 310 307 311 312 312 318 329 339 339 342 343 343 343 341 337 339 341 341 338 335 329 327 327 322 315 313 312 316 323 325 319 318 321 321 320 324 325 324 325 325 324 322 319 320 326
311 312 315 304 307 309 308 310 317 330 338 332 331 337 343 346 341 338 338 340 340 341 338 333 330 329 327 318 314 312 311 312 314 315 325 321 320 321 323 324 323 323 323 326 328 321 320 325 326
312 317 312 305 304 309 309 311 331 333 332 331 329 331 336 343 337 337 337 341 339 340 337 334 333 329 324 315 312 311 310 309 311 316 325 317 319 321 321 322 324 321 322 321 321 324 325 324 322
313 309 302 306 307 307 310 310 321 329 332 330 328 331 334 337 337 337 338 339 338 339 337 334 332 328 320 313 310 311 311 315 320 321 322 321 322 322 321 322 323 318 318 315 316 317 318 318 315
311 303 307 306 307 308 310 330 330 331 332 331 329 333 340 335 338 339 339 338 339 338 337 334 330 326 318 314 313 312 315 319 322 321 322 321 319 318 318 318 321 317 316 315 315 315 316 317 317
308 303 307 308 309 309 323 330 331 332 332 330 332 336 339 335 336 332 336 336 338 338 337 333 330 325 325 322 312 316 320 324 324 321 320 317 315 316 316 316 316 316 316 316 316 316 316 315 315
309 307 309 310 311 311 329 330 332 332 330 330 330 337 338 334 333 331 330 332 335 335 335 333 330 324 322 318 316 320 323 322 319 315 315 314 313 313 315 317 317 317 317 317 317 317 317 316 315
306 306 310 310 309 310 329 331 330 331 331 327 330 338 340 332 331 329 329 329 327 327 329 326 321 314 317 319 322 324 322 320 313 314 313 313 313 313 313 313 314 317 318 318 318 317 316 315 314
306 309 310 311 311 313 328 330 330 328 332 334 334 334 333 329 327 325 326 325 325 326 321 319 319 321 320 320 321 324 322 315 314 313 313 313 314 314 314 315 315 316 318 318 317 316 315 314 313
308 310 312 311 311 323 328 327 328 331 334 335 335 334 332 330 328 326 325 324 323 320 317 315 317 317 315 315 313 315 318 314 313 313 314 314 314 315 315 315 316 317 318 318 317 315 313 312 311
309 312 312 311 311 325 326 325 327 332 334 333 335 335 333 331 329 328 325 323 322 322 320 319 321 322 320 316 316 318 315 314 314 314 314 315 315 315 315 316 317 318 318 318 316 313 312 312 311
313 311 311 313 324 323 324 324 327 325 326 330 332 332 331 329 329 327 326 324 323 323 323 322 322 321 326 320 313 317 315 316 315 316 321 320 318 316 316 317 318 320 319 316 314 314 312 311 310
311 311 315 315 322 323 323 324 324 330 330 331 331 330 328 329 328 327 327 326 323 322 324 322 321 324 322 320 313 318 316 317 318 322 324 325 324 321 318 320 320 319 316 316 314 312 311 310 309
313 316 320 323 323 322 324 325 324 331 330 331 330 329 327 326 327 326 325 325 324 324 323 321 323 326 323 321 314 317 318 319 323 325 327 327 325 325 324 321 318 316 315 313 312 311 310 309 308
316 322 323 323 322 324 322 325 324 331 330 330 328 327 326 324 327 326 325 323 324 324 322 321 322 328 325 322 316 318 319 324 328 328 328 327 326 323 323 319 316 314 314 313 311 310 310 308 304
314 316 322 322 323 322 320 323 326 330 330 330 329 328 327 325 325 326 326 323 323 323 321 321 326 328 326 322 317 319 321 328 328 327 326 326 324 321 319 317 315 314 313 312 311 310 307 303 301
313 314 315 319 322 323 320 324 324 327 331 331 330 329 327 327 326 325 326 325 323 323 324 325 326 328 326 323 318 319 323 328 327 326 326 325 322 320 318 316 315 313 312 310 309 306 303 301 300
319 319 317 319 321 321 323 321 324 326 330 331 329 329 328 326 327 327 325 326 324 322 323 325 327 328 326 323 320 322 327 326 323 322 321 322 322 320 317 316 314 312 310 308 305 303 302 300 300
318 319 319 317 315 323 321 318 324 325 327 329 329 329 329 329 327 328 327 326 325 324 325 325 327 328 327 324 323 326 327 324 320 320 320 320 320 318 316 314 311 309 309 306 303 302 301 300 300
318 319 319 316 316 317 316 317 320 325 327 330 330 330 329 329 328 328 328 327 326 325 325 326 327 328 329 325 324 325 325 323 320 319 319 319 318 316 313 312 310 309 307 304 303 302 301 300 300
318 319 319 319 316 313 317 316 314 320 326 329 329 329 327 328 329 329 329 328 328 328 327 327 328 329 328 325 325 324 322 320 319 318 318 317 315 313 312 311 309 306 304 304 303 301 300 299 299
319 317 319 319 318 316 313 315 316 315 326 326 329 326 325 323 328 329 329 329 329 328 328 328 328 328 327 325 325 323 322 319 318 318 317 315 314 312 310 308 307 304 304 301 298 297 297 296 297
318 319 319 319 318 318 317 316 314 316 317 325 326 326 325 322 327 328 328 329 328 328 328 327 327 327 326 325 325 323 322 320 319 318 315 313 313 310 309 307 305 304 300 297 297 295 295 295 297
318 318 316 317 317 320 319 316 317 317 318 316 322 325 325 321 324 326 327 327 326 327 327 326 326 326 325 325 324 323 321 319 318 315 314 312 310 309 307 305 303 299 298 298 298 295 294 294 296
317 317 320 320 321 322 319 320 318 316 316 316 316 320 322 322 319 321 321 323 324 325 325 325 325 325 325 325 324 324 322 320 319 316 315 312 309 307 305 303 300 299 302 298 299 296 294 294 294
319 318 319 321 321 318 319 322 319 318 317 317 313 313 317 318 318 320 321 323 324 324 324 325 325 325 324 324 324 324 323 322 319 316 315 312 309 307 303 300 299 301 303 303 298 296 295 295 294
319 319 316 319 319 318 318 317 313 317 320 319 318 318 316 318 318 321 322 324 324 324 325 325 326 325 325 324 324 323 324 323 321 317 315 311 308 305 300 299 301 305 304 299 297 297 296 295 295
319 317 319 317 322 323 317 317 315 315 318 321 321 321 322 320 321 323 323 324 325 325 325 325 325 325 325 325 325 326 325 324 322 317 314 312 309 306 302 300 302 303 298 299 298 297 296 295 295
318 317 314 315 314 318 317 316 311 313 315 317 318 317 319 321 321 323 324 326 325 325 326 326 325 325 325 326 326 326 325 323 318 316 315 313 310 303 300 299 302 299 299 297 297 297 295 295 295
315 317 315 316 316 315 313 316 312 310 311 312 316 318 316 320 321 321 323 325 326 326 325 325 325 326 325 326 326 325 322 319 314 312 310 308 303 300 299 301 298 298 297 298 297 295 295 295 294
Wind_Speed
2 3 2 5 4 5 3 6 2 4 3 4 3 2 2 5 0 1 3 10 24 34 33 31 32 32 32 31 30 30 30 31 29 27 28 30 30 32 33 32 32 30 27 24 22 20 21 22 22
5 4 4 2 5 3 5 4 3 2 1 4 5 1 6 4 3 3 5 17 27 32 31 30 31 32 32 32 30 31 33 32 30 27 26 29 31 32 32 32 32 31 28 26 28 28 29 27 24
3 3 3 4 3 5 5 3 2 1 1 1 3 5 3 3 4 4 4 21 26 31 30 30 29 31 31 30 31 30 32 32 30 29 26 32 31 31 34 32 31 31 30 28 29 30 29 26 26
2 5 4 4 6 5 4 5 2 3 1 4 2 7 3 5 3 3 15 18 20 28 30 31 31 32 30 29 29 31 30 30 30 30 29 30 28 29 33 33 30 31 32 32 29 27 26 25 25
3 3 3 1 3 5 5 2 3 2 1 2 1 3 3 4 9 14 14 12 19 26 30 31 32 32 29 29 32 30 29 30 30 31 30 30 30 31 32 32 31 31 31 30 29 28 28 26 22
4 3 3 1 4 5 3 1 2 1 3 2 5 5 2 9 11 18 14 11 11 16 26 31 31 32 26 27 30 28 28 29 29 30 29 31 31 31 30 29 29 29 27 25 25 25 24 23 20
5 3 3 1 4 5 1 1 2 1 3 3 3 5 2 8 12 16 18 17 9 10 21 31 32 31 24 24 26 25 27 29 29 29 28 29 28 27 26 25 24 22 21 21 21 20 19 19 17
5 4 2 2 3 5 1 2 3 4 1 2 5 5 5 4 19 18 18 22 27 25 26 30 39 31 19 22 21 23 25 27 28 28 27 26 25 23 22 20 20 19 18 19 18 17 16 16 15
3 4 1 3 3 6 1 1 2 1 4 3 3 1 16 21 28 28 28 28 32 31 35 32 33 26 22 21 18 20 21 25 25 25 25 24 22 20 18 16 16 16 15 16 16 16 16 16 14
4 3 6 6 4 4 4 4 1 2 3 4 4 12 22 20 20 18 17 18 25 32 46 42 28 24 25 23 17 19 21 23 24 24 22 21 19 18 17 14 13 13 13 13 14 15 16 16 13
4 4 4 5 8 5 6 4 4 7 1 6 11 13 12 14 15 18 18 20 25 33 33 33 30 25 23 22 20 22 21 22 22 20 19 18 16 16 14 14 12 12 10 13 15 15 13 13 12
2 8 6 4 3 5 6 7 4 4 4 5 13 13 8 9 10 15 22 19 25 24 31 34 35 29 15 15 18 19 22 21 21 20 18 15 14 14 13 12 11 10 12 15 14 11 12 11 10
3 4 4 5 7 0 9 3 5 1 1 10 10 10 10 10 12 15 15 22 23 19 22 30 33 19 17 15 16 19 20 20 19 18 16 14 13 13 12 11 13 14 15 13 12 11 10 9 8
4 3 3 3 0 2 2 1 2 1 6 9 12 7 6 7 12 16 18 20 23 25 29 36 26 16 16 14 15 17 19 18 17 16 16 15 14 13 14 14 16 15 14 12 11 10 8 8 5
2 2 3 1 1 1 8 2 3 6 7 7 7 6 4 5 11 15 19 19 23 22 26 34 22 17 16 14 17 17 19 17 17 17 15 15 15 14 16 17 16 14 13 12 10 9 6 4 4
4 4 2 1 3 2 2 4 1 7 10 7 6 6 5 6 8 11 15 22 23 27 30 28 22 20 19 16 18 19 20 18 18 16 15 15 16 16 18 17 15 14 12 10 8 6 5 3 4
5 2 2 2 5 4 4 2 3 7 8 7 6 6 7 6 9 16 20 21 26 27 27 24 22 20 20 18 19 21 21 20 17 15 15 17 17 16 16 16 16 14 12 10 6 5 3 5 5
1 2 3 2 3 3 3 4 5 8 9 9 8 7 7 8 15 20 23 25 23 25 24 23 21 19 21 19 20 21 21 21 18 17 15 15 16 17 18 17 16 16 12 9 6 3 4 4 2
2 3 2 3 3 5 7 6 11 11 7 9 9 9 9 11 11 19 24 25 27 26 24 27 27 25 25 24 24 24 26 23 19 16 14 14 17 18 18 18 18 14 10 7 3 4 3 1 2
5 3 2 4 1 6 1 7 8 12 16 14 16 13 14 11 8 15 22 26 29 32 32 30 31 30 29 30 29 28 28 25 21 16 15 16 17 19 20 18 16 12 8 4 4 3 3 6 3
3 0 0 3 5 2 2 2 5 5 5 8 9 13 10 12 11 10 18 26 28 33 36 35 34 33 32 31 30 26 26 21 18 18 19 19 20 20 19 17 15 11 6 6 5 5 5 4 1
2 4 2 2 3 1 3 3 4 5 15 8 13 11 13 12 11 12 17 20 28 30 32 33 33 33 33 33 34 34 32 23 25 25 23 22 21 21 19 17 13 10 9 9 7 3 2 4 4
6 3 2 1 1 2 2 3 5 3 6 16 16 14 15 15 15 15 19 27 29 30 33 32 31 32 33 35 36 37 31 29 24 25 24 24 24 22 19 16 15 15 13 9 2 4 6 7 2
3 3 6 4 3 2 3 4 5 5 8 9 15 18 18 13 15 14 20 20 23 25 30 32 33 34 35 35 37 36 33 28 22 26 29 27 24 20 18 18 19 16 10 5 3 5 7 6 2
4 5 2 3 3 5 0 1 8 6 3 7 10 15 17 14 12 11 12 18 23 28 29 31 33 33 35 37 36 36 33 26 28 29 32 29 28 26 26 25 23 16 5 4 5 5 3 4 3
4 6 5 4 3 3 2 4 6 2 5 7 8 8 8 9 10 13 15 19 22 26 28 30 29 29 34 38 38 36 35 31 31 30 32 34 34 31 28 25 19 9 8 6 4 6 4 4 5
5 3 4 6 3 2 3 6 9 2 4 7 4 4 7 7 9 12 12 20 22 24 30 31 32 32 34 37 37 37 37 35 33 31 32 36 32 29 28 25 23 16 12 5 5 7 8 8 8
1 6 3 2 3 3 4 4 5 8 4 3 5 5 2 3 5 6 8 17 23 28 31 32 34 36 36 36 38 36 35 35 36 33 34 36 33 32 35 29 21 10 11 8 5 10 11 13 15
2 1 5 4 4 4 1 5 7 6 5 4 5 7 6 7 7 7 9 17 22 25 30 33 32 31 34 36 35 33 32 32 32 30 33 36 36 35 30 25 10 12 13 12 9 16 15 17 18
4 7 6 5 3 1 3 6 4 7 5 5 7 4 6 7 7 6 7 13 19 25 26 29 32 33 33 34 32 32 31 31 27 26 29 31 32 30 23 12 16 15 9 10 18 19 17 17 20
Wind_Direction
84 112 104 52 57 63 277 261 260 282 301 354 37 358 112 43 47 227 320 165 156 160 162 157 153 147 141 139 137 135 133 128 125 127 126 123 120 118 116 111 108 106 103 99 101 109 116 116 111
112 110 59 82 84 66 266 256 285 307 345 304 76 38 51 70 47 81 120 158 157 158 160 157 154 149 145 141 138 137 135 133 131 129 128 126 122 118 115 111 111 108 103 98 98 102 110 112 111
127 69 83 92 131 189 220 223 333 212 275 323 109 64 61 358 58 126 150 157 163 158 161 157 156 150 144 140 139 140 139 135 135 132 129 124 121 119 115 113 109 109 104 101 104 105 108 110 109
171 18 39 106 227 279 231 271 324 254 169 46 139 70 65 5 348 153 147 160 156 160 163 163 157 151 145 144 141 141 137 133 132 129 127 124 123 120 118 115 110 109 108 103 103 104 109 110 107
59 53 75 15 273 249 244 320 298 194 117 16 75 108 64 39 99 126 133 133 159 170 171 166 157 150 149 146 142 142 137 134 132 130 129 129 128 123 118 116 114 108 106 107 101 100 102 102 100
34 99 66 20 255 263 297 60 12 289 186 157 84 85 28 107 93 86 110 118 150 165 167 161 154 139 138 145 139 141 136 134 134 133 135 135 133 124 118 116 113 109 108 106 104 97 94 94 91
125 84 196 211 264 289 227 104 154 307 82 337 124 91 78 80 116 96 88 87 125 126 139 145 133 124 136 140 136 142 140 139 138 135 140 136 131 126 121 119 117 113 109 110 102 97 95 88 82
111 86 27 271 271 279 261 127 107 67 52 345 5 154 149 130 129 111 99 105 95 106 116 128 116 114 139 138 144 143 144 140 136 140 138 135 132 129 124 123 120 119 116 109 112 109 100 91 90
109 58 304 259 259 260 67 106 349 102 83 52 343 290 129 129 121 105 100 99 109 115 106 106 112 141 143 139 142 143 137 136 140 137 139 137 136 135 132 128 130 127 119 110 115 113 107 106 99
96 144 226 205 235 250 114 81 130 109 109 70 95 112 133 140 135 125 119 119 119 118 125 126 133 130 141 138 139 148 151 144 142 144 144 144 144 143 141 139 135 129 122 121 118 117 114 110 98
175 214 228 249 242 151 131 142 149 127 333 195 171 147 143 153 155 139 130 137 132 130 134 140 139 142 140 155 162 158 145 147 149 152 153 155 154 150 149 147 146 143 140 129 129 124 108 97 89
181 246 209 263 173 155 155 143 106 138 211 123 150 153 142 155 151 147 146 150 152 146 149 157 162 161 173 173 165 157 157 157 158 161 160 160 159 158 156 154 160 164 152 138 128 116 109 97 90
219 265 279 230 182 174 128 168 143 40 26 116 126 144 156 172 159 150 160 144 175 167 164 161 163 182 178 171 172 167 165 164 171 170 171 175 178 171 173 173 165 150 144 139 131 123 107 95 80
258 357 277 129 295 328 107 293 207 151 115 125 145 153 179 177 173 144 153 153 166 167 174 168 179 189 188 180 181 178 173 175 183 185 189 194 195 199 189 171 157 148 145 139 134 121 109 97 78
298 41 9 163 219 186 140 351 22 144 131 133 161 162 189 215 183 175 168 167 181 177 176 182 192 196 197 192 190 188 181 184 190 190 189 196 189 189 177 168 159 153 147 148 140 123 114 112 89
40 60 282 220 223 251 108 285 92 148 147 159 191 150 185 207 204 195 184 180 184 179 187 195 200 199 201 201 197 193 189 189 188 187 187 194 188 185 177 172 164 158 160 159 155 145 137 84 55
8 196 283 328 216 104 73 288 196 166 163 169 203 205 184 192 194 212 203 190 191 192 193 198 200 200 204 206 199 196 195 199 196 198 196 195 195 190 187 179 173 172 173 167 163 141 76 52 36
209 27 310 236 244 74 97 261 176 194 173 189 203 224 205 197 211 201 200 200 203 202 197 199 205 208 206 204 200 199 200 198 199 195 201 201 200 197 192 185 179 176 171 164 146 83 61 40 1
185 131 254 274 290 172 213 223 194 196 198 185 208 210 218 219 213 202 206 203 203 202 197 203 205 206 204 198 196 194 193 195 197 197 205 204 199 194 191 183 176 170 174 155 106 80 82 153 231
247 152 269 289 276 191 149 227 187 189 205 201 195 206 215 217 191 185 197 206 207 211 212 210 210 209 207 206 202 199 196 199 201 200 202 202 200 194 188 183 177 173 167 149 147 137 180 201 191
251 147 138 248 324 40 60 355 159 214 201 205 219 219 219 209 196 199 194 200 203 208 210 212 210 209 208 208 203 198 197 201 200 203 202 198 196 192 191 185 181 173 170 161 156 168 182 178 149
244 215 145 7 39 269 86 278 261 207 215 216 221 210 215 212 198 197 200 204 207 211 213 215 213 212 211 209 202 201 199 195 206 209 203 198 198 193 190 187 181 178 165 153 151 149 133 89 49
219 211 51 328 138 32 345 85 265 134 231 231 225 223 214 210 202 201 201 203 205 209 214 216 216 215 215 212 211 209 211 213 214 210 200 196 191 192 190 190 185 174 161 142 81 67 347 19 58
145 97 45 43 75 47 263 130 279 194 207 219 221 229 224 196 205 204 203 199 202 206 211 214 215 218 217 215 214 217 219 217 210 204 195 194 191 191 194 191 178 165 152 131 29 67 351 356 272
94 73 337 4 20 215 236 91 240 266 309 235 214 219 224 205 187 187 178 182 192 200 206 214 215 215 221 221 221 223 225 220 219 210 202 193 191 192 191 183 176 165 146 100 349 0 322 282 286
183 145 157 203 187 258 279 234 256 182 288 286 257 245 216 184 186 193 189 185 191 196 202 210 212 214 220 224 228 229 231 226 226 219 206 204 199 195 185 181 172 179 240 285 267 252 261 253 279
177 150 168 101 16 61 254 292 301 87 345 320 334 177 201 188 190 196 171 187 191 192 204 209 214 220 225 230 230 233 235 228 228 224 216 208 202 193 182 188 199 236 259 236 243 280 268 263 252
158 158 87 25 159 227 289 284 241 316 318 310 318 305 239 193 183 178 173 181 200 206 213 220 220 224 228 232 234 234 232 232 230 220 212 209 205 201 199 197 213 222 196 221 244 268 253 250 249
94 153 63 117 132 166 225 265 215 245 281 309 247 247 240 207 189 189 190 194 202 209 217 223 224 226 233 238 236 233 237 234 225 220 215 211 208 201 196 199 226 205 220 218 271 255 239 245 246
174 197 153 131 216 124 157 268 254 245 264 263 283 223 210 218 201 194 195 190 201 209 210 216 228 236 237 237 235 235 229 224 223 213 208 204 199 196 192 216 199 211 211 259 251 247 248 251 247